• Join FlightAware (Why Join?)
  • Login
  • US Flag GB Flag 
03:36 EDT


 

Airport Tracker/Info


-or-


 

Live Flight TrackerFlight Track Log ✈ FSR411 ✈ 23-Oct-2013 ✈ KDET - KUZA

Flight Track Log - Related Links

Times and Time Zones

All times are in EDT time to prevent confusion due to time zone crossing. See the FSR411 flight status page for this flight to view local times or setup timezone preferences in your user account.

Time Position Orientation Groundspeed Altitude Reporting Facility
EDT Latitude Longitude Course Direction KTS MPH feet Rate Location/Type
08:34 42.4464 -83.0106 19° North 220 253 2,500  Level Cleveland Center
08:35 42.3978 -82.9314 130° Southeast 257 296 4,700 1,200 Climbing Cleveland Center
08:36 42.3361 -82.8672 142° Southeast 275 316 5,000 960 Climbing Cleveland Center
08:37 42.2789 -82.7964 138° Southeast 278 320 6,800 2,520 Climbing Cleveland Center
08:38 42.2303 -82.7108 127° Southeast 284 327 10,300 3,060 Climbing Cleveland Center
08:39 42.1711 -82.6156 130° Southeast 324 373 13,200 3,060 Climbing Cleveland Center
08:40 42.0992 -82.5033 131° Southeast 391 450 16,700 4,140 Climbing Cleveland Center
08:41 42.0600 -82.3181 106° East 432 497 21,800 3,480 Climbing Cleveland Center
08:42 42.0375 -82.1547 100° East 446 513 24,000 2,400 Climbing Cleveland Center
08:43 41.9658 -82.0150 125° Southeast 447 514 26,800 2,220 Climbing Cleveland Center
08:44 41.8650 -81.9156 144° Southeast 445 512 28,600 1,620 Climbing Cleveland Center
08:45 41.7578 -81.8133 145° Southeast 463 533 30,200 1,560 Climbing Cleveland Center
08:46 41.6461 -81.7225 149° Southeast 471 542 31,900 1,500 Climbing Cleveland Center
08:47 41.5253 -81.7111 176° South 438 504 33,400 1,320 Climbing Cleveland Center
08:48 41.4081 -81.7250 185° South 422 486 34,700 1,200 Climbing Cleveland Center
08:49 41.2917 -81.7372 185° South 413 475 36,000 1,020 Climbing Cleveland Center
08:50 41.1567 -81.7528 185° South 408 470 36,900 660 Climbing Cleveland Center
08:51 41.0497 -81.7658 185° South 419 482 37,400 480 Climbing Cleveland Center
08:53 40.9308 -81.7792 185° South 424 488 38,000 540 Climbing Cleveland Center
08:54 40.7906 -81.7958 185° South 429 494 38,600 600 Climbing Cleveland Center
08:55 40.6703 -81.8100 185° South 430 495 39,300 600 Climbing Cleveland Center
08:55 40.5911 -81.8203 186° South 427 491 39,700 540 Climbing Indianapolis Center
08:56 40.4739 -81.8350 185° South 421 484 40,300 540 Climbing Indianapolis Center
08:57 40.3572 -81.8469 184° South 418 481 40,900 300 Climbing Indianapolis Center
08:58 40.2331 -81.8619 185° South 419 482 41,000  Climbing Indianapolis Center
08:59 40.1158 -81.8750 185° South 421 484 41,000  Level Indianapolis Center
09:00 39.9969 -81.8883 185° South 428 493 41,000  Level Indianapolis Center
09:01 39.8772 -81.9025 185° South 430 495 41,000  Level Indianapolis Center
09:02 39.7592 -81.9156 185° South 427 491 41,000  Level Indianapolis Center
09:03 39.6350 -81.9297 185° South 428 493 41,000  Level Indianapolis Center
09:04 39.5164 -81.9422 185° South 427 491 41,000  Level Indianapolis Center
09:06 39.3967 -81.9553 185° South 429 494 41,000  Level Indianapolis Center
09:07 39.2769 -81.9686 185° South 431 496 41,000  Level Indianapolis Center
09:08 39.1572 -81.9828 185° South 432 497 41,000  Level Indianapolis Center
09:09 39.0144 -81.9972 184° South 432 497 41,000  Level Indianapolis Center
09:10 38.8936 -82.0106 185° South 430 495 41,000  Level Indianapolis Center
09:11 38.7756 -82.0233 185° South 433 498 41,000 -300 Level Indianapolis Center
09:12 38.6522 -82.0011 172° South 454 522 40,500 -780 Descending Indianapolis Center
09:13 38.5300 -81.9653 167° South 453 521 39,500 -1,020 Descending Indianapolis Center
09:14 38.4086 -81.9319 168° South 450 518 38,500 -1,080 Descending Indianapolis Center
09:15 38.2628 -81.8950 169° South 447 514 37,300 -1,140 Descending Indianapolis Center
09:16 38.1419 -81.8622 168° South 444 511 36,200 -660 Descending Indianapolis Center
09:17 38.0219 -81.8303 168° South 442 509 36,000 -420 Descending Indianapolis Center
09:18 37.8983 -81.7978 168° South 448 516 35,400 -960 Descending Indianapolis Center
09:19 37.7719 -81.7647 168° South 449 517 34,100 -1,260 Descending Indianapolis Center
09:20 37.6472 -81.7314 168° South 454 522 32,800 -1,260 Descending Indianapolis Center
09:21 37.5239 -81.6992 168° South 451 519 31,500 -1,440 Descending Indianapolis Center
09:22 37.3747 -81.6603 168° South 464 534 29,900 -1,260 Descending Indianapolis Center
09:23 37.2450 -81.6267 168° South 472 543 29,000 -480 Descending Indianapolis Center
09:24 37.1189 -81.5931 168° South 464 534 29,000  Level Indianapolis Center
09:25 36.9956 -81.5628 169° South 454 522 29,000  Level Indianapolis Center
09:26 36.8486 -81.5564 178° South 446 513 29,000 -240 Level Atlanta Center
09:27 36.7319 -81.5600 181° South 436 502 28,500 -960 Descending Atlanta Center
09:28 36.6150 -81.5583 179° South 426 490 27,100 -1,500 Descending Atlanta Center
09:29 36.5028 -81.5672 184° South 409 471 25,500 -1,500 Descending Atlanta Center
09:30 36.3900 -81.5681 180° South 409 471 24,200 -1,080 Descending Atlanta Center
09:31 36.2753 -81.5714 181° South 409 471 23,400 -1,440 Descending Atlanta Center
09:32 36.1669 -81.5722 180° South 399 459 21,400 -2,040 Descending Atlanta Center
09:33 36.0544 -81.5783 183° South 399 459 19,400 -1,920 Descending Atlanta Center
09:34 35.9503 -81.5789 180° South 392 451 17,600 -1,860 Descending Atlanta Center
09:35 35.8522 -81.5844 183° South 378 435 15,900 -1,920 Descending Atlanta Center
09:35 35.8417 -81.5822 170° South 387 445 15,700 -2,040 Descending Atlanta Center
09:36 35.7958 -81.5861 184° South 377 434 14,900 -1,800 Descending Atlanta Center
09:36 35.7397 -81.5878 181° South 382 440 13,900 -1,680 Descending Atlanta Center
09:37 35.7000 -81.5889 181° South 341 392 13,200 -1,500 Descending Atlanta Center
09:37 35.6522 -81.5903 181° South 341 392 12,400 -1,140 Descending Atlanta Center
09:38 35.6144 -81.5864 175° South 286 329 12,100 -420 Descending Atlanta Center
09:38 35.5761 -81.5442 138° Southeast 296 341 12,000 -120 Descending Atlanta Center
09:39 35.5503 -81.5067 130° Southeast 344 396 12,000 -540 Level Atlanta Center
09:39 35.5178 -81.4542 127° Southeast 312 359 11,500 -1,140 Descending Atlanta Center
09:40 35.4919 -81.4142 128° Southeast 346 398 10,900 -1,500 Descending Atlanta Center
09:40 35.4619 -81.3692 129° Southeast 322 371 10,000 -1,500 Descending Atlanta Center
09:41 35.4400 -81.3317 126° Southeast 312 359 9,400 -1,020 Descending Atlanta Center
09:41 35.4078 -81.2842 130° Southeast 322 371 9,000 -420 Descending Atlanta Center
09:42 35.3819 -81.2444 129° Southeast 300 345 9,000  Level Atlanta Center
09:42 35.3539 -81.2044 131° Southeast 310 357 9,000  Level Atlanta Center
09:43 35.3278 -81.1622 127° Southeast 308 354 9,000  Level Atlanta Center
09:43 35.2978 -81.1225 133° Southeast 310 357 9,000  Level Atlanta Center
09:44 35.2697 -81.0878 135° Southeast 305 351 9,000  Level Atlanta Center
09:44 35.2400 -81.0711 155° Southeast 300 345 9,000 -1,140 Level Atlanta Center
09:45 35.1958 -81.0525 161° South 271 312 7,900 -2,760 Descending Atlanta Center
09:46 35.1264 -81.0244 162° South 242 278 4,800 -3,060 Descending Atlanta Center
09:48 34.9833 -81.0500 209° Southwest  Level FlightAware Approximate
09:55 34.9878 -81.0572 209° Southwest  Level Estimated
09:56 34.9878 -81.0572 209° Southwest  Level Estimated
09:57 34.9878 -81.0572 209° Southwest  Level Estimated